| time (UTC) | temp F | wind direction | speed MPH | gust MPH | rain 1hr in | rain 24hr in | rain mn in | humidity % | barometer mb |
| 20260505125007 | 66 | 233 | 6.0 | 12.0 | 0.00 | 0.00 | 0.00 | 61 | 1016.9 |
| 20260505124528 | 65 | 197 | 4.0 | 11.0 | 0.00 | 0.00 | 0.00 | 62 | 1016.9 |
| 20260505124008 | 65 | 231 | 2.0 | 8.0 | 0.00 | 0.00 | 0.00 | 63 | 1016.9 |
| 20260505123507 | 65 | 211 | 2.0 | 12.0 | 0.00 | 0.00 | 0.00 | 64 | 1016.8 |
| 20260505123006 | 64 | 241 | 6.0 | 12.0 | 0.00 | 0.00 | 0.00 | 64 | 1016.8 |
| 20260505122504 | 64 | 211 | 1.0 | 15.0 | 0.00 | 0.00 | 0.00 | 64 | 1016.8 |
| 20260505122010 | 63 | 217 | 6.0 | 15.0 | 0.00 | 0.00 | 0.00 | 64 | 1016.7 |
| 20260505121510 | 63 | 175 | 4.0 | 11.0 | 0.00 | 0.00 | 0.00 | 66 | 1016.7 |
| 20260505121007 | 62 | 312 | 3.0 | 11.0 | 0.00 | 0.00 | 0.00 | 67 | 1016.7 |
| 20260505120507 | 62 | 188 | 3.0 | 10.0 | 0.00 | 0.00 | 0.00 | 67 | 1016.6 |
| 20260505120021 | 62 | 200 | 4.0 | 9.0 | 0.00 | 0.00 | 0.00 | 68 | 1016.6 |
| 20260505115506 | 61 | 234 | 3.0 | 10.0 | 0.00 | 0.00 | 0.00 | 69 | 1016.6 |
| 20260505115004 | 61 | 216 | 3.0 | 8.0 | 0.00 | 0.00 | 0.00 | 68 | 1016.5 |
| 20260505114508 | 61 | 220 | 4.0 | 9.0 | 0.00 | 0.00 | 0.00 | 69 | 1016.6 |
| 20260505114004 | 61 | 200 | 3.0 | 10.0 | 0.00 | 0.00 | 0.00 | 70 | 1016.6 |
| 20260505113503 | 60 | 226 | 3.0 | 10.0 | 0.00 | 0.00 | 0.00 | 70 | 1016.5 |
| 20260505113018 | 60 | 218 | 5.0 | 9.0 | 0.00 | 0.00 | 0.00 | 71 | 1016.5 |
| 20260505112507 | 60 | 267 | 2.0 | 7.0 | 0.00 | 0.00 | 0.00 | 71 | 1016.5 |
| 20260505112010 | 59 | 188 | 3.0 | 10.0 | 0.00 | 0.00 | 0.00 | 71 | 1016.6 |
| 20260505111520 | 59 | 186 | 4.0 | 10.0 | 0.00 | 0.00 | 0.00 | 71 | 1016.5 |
| 20260505111006 | 59 | 218 | 4.0 | 9.0 | 0.00 | 0.00 | 0.00 | 71 | 1016.5 |
| 20260505110505 | 59 | 238 | 4.0 | 9.0 | 0.00 | 0.00 | 0.00 | 71 | 1016.5 |
| 20260505102006 | 59 | 171 | 4.0 | 11.0 | 0.00 | 0.00 | 0.00 | 70 | 1016.0 |
| 20260505101517 | 59 | 239 | 6.0 | 11.0 | 0.00 | 0.00 | 0.00 | 70 | 1015.8 |
| 20260505101009 | 59 | 146 | 3.0 | 9.0 | 0.00 | 0.00 | 0.00 | 70 | 1015.8 |
| 20260505100508 | 59 | 191 | 3.0 | 9.0 | 0.00 | 0.00 | 0.00 | 70 | 1015.7 |
| 20260505100024 | 59 | 194 | 3.0 | 9.0 | 0.00 | 0.00 | 0.00 | 70 | 1015.5 |
| 20260505095507 | 59 | 190 | 3.0 | 9.0 | 0.00 | 0.00 | 0.00 | 70 | 1015.6 |
| 20260505095005 | 59 | 236 | 3.0 | 9.0 | 0.00 | 0.00 | 0.00 | 69 | 1015.5 |
| 20260505094511 | 60 | 202 | 3.0 | 10.0 | 0.00 | 0.00 | 0.00 | 69 | 1015.4 |
| 20260505094007 | 60 | 227 | 3.0 | 9.0 | 0.00 | 0.00 | 0.00 | 69 | 1015.4 |
| 20260505093507 | 60 | 196 | 3.0 | 9.0 | 0.00 | 0.00 | 0.00 | 69 | 1015.3 |
| 20260505093019 | 60 | 240 | 4.0 | 9.0 | 0.00 | 0.00 | 0.00 | 68 | 1015.4 |
| 20260505092508 | 60 | 224 | 3.0 | 9.0 | 0.00 | 0.00 | 0.00 | 68 | 1015.3 |
| 20260505092010 | 60 | 254 | 4.0 | 9.0 | 0.00 | 0.00 | 0.00 | 68 | 1015.3 |
| 20260505091522 | 60 | 256 | 2.0 | 8.0 | 0.00 | 0.00 | 0.00 | 68 | 1015.3 |
| 20260505091006 | 60 | 218 | 2.0 | 8.0 | 0.00 | 0.00 | 0.00 | 68 | 1015.3 |
| 20260505090503 | 60 | 214 | 3.0 | 9.0 | 0.00 | 0.00 | 0.00 | 67 | 1015.3 |
| 20260505090012 | 60 | 167 | 4.0 | 9.0 | 0.00 | 0.00 | 0.00 | 67 | 1015.2 |
| 20260505085509 | 60 | 188 | 3.0 | 7.0 | 0.00 | 0.00 | 0.00 | 67 | 1015.2 |
| 20260505085007 | 60 | 191 | 2.0 | 8.0 | 0.00 | 0.00 | 0.00 | 67 | 1015.3 |
| 20260505084541 | 61 | 186 | 2.0 | 8.0 | 0.00 | 0.00 | 0.00 | 67 | 1015.3 |
| 20260505084011 | 61 | 225 | 4.0 | 8.0 | 0.00 | 0.00 | 0.00 | 66 | 1015.2 |
| 20260505083509 | 61 | 246 | 3.0 | 9.0 | 0.00 | 0.00 | 0.00 | 66 | 1015.2 |
| 20260505083026 | 61 | 169 | 3.0 | 9.0 | 0.00 | 0.00 | 0.00 | 66 | 1015.2 |
| 20260505082507 | 61 | 221 | 1.0 | 7.0 | 0.00 | 0.00 | 0.00 | 66 | 1015.1 |
| 20260505082008 | 61 | 221 | 3.0 | 8.0 | 0.00 | 0.00 | 0.00 | 66 | 1015.1 |
| 20260505081520 | 61 | 288 | 2.0 | 8.0 | 0.00 | 0.00 | 0.00 | 65 | 1015.2 |
| 20260505081007 | 61 | 207 | 1.0 | 15.0 | 0.00 | 0.00 | 0.00 | 65 | 1015.1 |
| 20260505080510 | 61 | 207 | 6.0 | 12.0 | 0.00 | 0.00 | 0.00 | 65 | 1015.1 |
| 20260505080026 | 61 | 179 | 4.0 | 9.0 | 0.00 | 0.00 | 0.00 | 65 | 1015.1 |
| 20260505075507 | 61 | 242 | 2.0 | 7.0 | 0.00 | 0.00 | 0.00 | 65 | 1015.1 |
| 20260505075008 | 61 | 209 | 3.0 | 7.0 | 0.00 | 0.00 | 0.00 | 65 | 1015.1 |
| 20260505074512 | 62 | 236 | 3.0 | 9.0 | 0.00 | 0.00 | 0.00 | 65 | 1015.1 |
| 20260505074006 | 62 | 221 | 4.0 | 9.0 | 0.00 | 0.00 | 0.00 | 64 | 1015.1 |
| 20260505073507 | 62 | 179 | 4.0 | 10.0 | 0.00 | 0.00 | 0.00 | 64 | 1015.1 |
| 20260505073022 | 62 | 250 | 3.0 | 10.0 | 0.00 | 0.00 | 0.00 | 64 | 1015.0 |
| 20260505072509 | 62 | 186 | 2.0 | 10.0 | 0.00 | 0.00 | 0.00 | 64 | 1015.0 |
| 20260505072012 | 62 | 240 | 2.0 | 9.0 | 0.00 | 0.00 | 0.00 | 64 | 1014.9 |
| 20260505071525 | 62 | 243 | 4.0 | 9.0 | 0.00 | 0.00 | 0.00 | 63 | 1015.0 |
| 20260505071011 | 62 | 167 | 3.0 | 9.0 | 0.00 | 0.00 | 0.00 | 63 | 1014.9 |
| 20260505070509 | 62 | 234 | 3.0 | 9.0 | 0.00 | 0.00 | 0.00 | 63 | 1014.9 |
| 20260505070016 | 62 | 238 | 1.0 | 11.0 | 0.00 | 0.00 | 0.00 | 62 | 1014.8 |
| 20260505065509 | 62 | 214 | 3.0 | 12.0 | 0.00 | 0.00 | 0.00 | 62 | 1014.9 |
| 20260505065006 | 63 | 202 | 5.0 | 12.0 | 0.00 | 0.00 | 0.00 | 62 | 1014.9 |
| 20260505064526 | 62 | 205 | 5.0 | 10.0 | 0.00 | 0.00 | 0.00 | 62 | 1014.9 |
| 20260505064015 | 62 | 244 | 3.0 | 9.0 | 0.00 | 0.00 | 0.00 | 62 | 1014.9 |
| 20260505063510 | 63 | 211 | 4.0 | 9.0 | 0.00 | 0.00 | 0.00 | 61 | 1014.9 |
| 20260505063033 | 63 | 205 | 3.0 | 11.0 | 0.00 | 0.00 | 0.00 | 61 | 1014.9 |
| 20260505062508 | 63 | 188 | 6.0 | 11.0 | 0.00 | 0.00 | 0.00 | 61 | 1014.9 |
| 20260505062007 | 63 | 224 | 3.0 | 12.0 | 0.00 | 0.00 | 0.00 | 61 | 1014.9 |
| 20260505061522 | 63 | 243 | 6.0 | 12.0 | 0.00 | 0.00 | 0.00 | 60 | 1014.9 |
| 20260505061007 | 63 | 238 | 4.0 | 12.0 | 0.00 | 0.00 | 0.00 | 61 | 1015.0 |
| 20260505060510 | 63 | 227 | 6.0 | 12.0 | 0.00 | 0.00 | 0.00 | 61 | 1015.0 |
| 20260505060034 | 63 | 267 | 4.0 | 11.0 | 0.00 | 0.00 | 0.00 | 61 | 1015.0 |
| 20260505055513 | 63 | 170 | 4.0 | 11.0 | 0.00 | 0.00 | 0.00 | 61 | 1015.1 |
| 20260505055010 | 63 | 280 | 4.0 | 14.0 | 0.00 | 0.00 | 0.00 | 61 | 1015.0 |
| 20260505054515 | 63 | 229 | 3.0 | 14.0 | 0.00 | 0.00 | 0.00 | 61 | 1015.1 |
| 20260505054011 | 63 | 225 | 5.0 | 11.0 | 0.00 | 0.00 | 0.00 | 61 | 1015.1 |
| 20260505053509 | 63 | 264 | 4.0 | 14.0 | 0.00 | 0.00 | 0.00 | 61 | 1015.2 |
| 20260505053022 | 63 | 215 | 4.0 | 14.0 | 0.00 | 0.00 | 0.00 | 61 | 1015.3 |
| 20260505052510 | 63 | 190 | 5.0 | 12.0 | 0.00 | 0.00 | 0.00 | 61 | 1015.3 |
| 20260505052009 | 63 | 184 | 3.0 | 11.0 | 0.00 | 0.00 | 0.00 | 61 | 1015.1 |
| 20260505051528 | 64 | 125 | 4.0 | 11.0 | 0.00 | 0.00 | 0.00 | 61 | 1015.2 |
| 20260505051011 | 64 | 218 | 5.0 | 12.0 | 0.00 | 0.00 | 0.00 | 61 | 1015.2 |
| 20260505050508 | 64 | 229 | 4.0 | 12.0 | 0.00 | 0.00 | 0.00 | 60 | 1015.3 |
| 20260505041523 | 65 | 114 | 1.0 | 12.0 | 0.00 | 0.00 | 0.00 | 60 | 1015.2 |
| 20260505041007 | 65 | 214 | 6.0 | 12.0 | 0.00 | 0.00 | 0.00 | 60 | 1015.1 |
| 20260505040513 | 65 | 169 | 5.0 | 12.0 | 0.00 | 0.00 | 0.00 | 60 | 1015.2 |
| 20260505040029 | 65 | 267 | 4.0 | 13.0 | 0.00 | 0.00 | 0.00 | 60 | 1015.1 |
| 20260505035511 | 65 | 246 | 5.0 | 13.0 | 0.00 | 0.00 | 0.00 | 60 | 1015.0 |
| 20260505035010 | 65 | 194 | 6.0 | 12.0 | 0.00 | 0.00 | 0.00 | 59 | 1015.1 |
| 20260505034531 | 65 | 190 | 6.0 | 15.0 | 0.00 | 0.00 | 0.00 | 59 | 1015.1 |
| 20260505034008 | 65 | 221 | 5.0 | 15.0 | 0.00 | 0.00 | 0.00 | 60 | 1015.0 |
| 20260505033511 | 65 | 220 | 5.0 | 13.0 | 0.00 | 0.00 | 0.00 | 59 | 1015.0 |
| 20260505033026 | 65 | 256 | 7.0 | 14.0 | 0.00 | 0.00 | 0.00 | 59 | 1015.0 |
| 20260505032510 | 65 | 215 | 6.0 | 14.0 | 0.00 | 0.00 | 0.00 | 59 | 1015.0 |
| 20260505032011 | 65 | 236 | 5.0 | 15.0 | 0.00 | 0.00 | 0.00 | 60 | 1015.0 |
| 20260505031529 | 65 | 230 | 7.0 | 15.0 | 0.00 | 0.00 | 0.00 | 59 | 1014.9 |
| 20260505031009 | 65 | 241 | 4.0 | 14.0 | 0.00 | 0.00 | 0.00 | 59 | 1015.0 |
| 20260505030507 | 65 | 107 | 5.0 | 18.0 | 0.00 | 0.00 | 0.00 | 59 | 1014.9 |
| 20260505030022 | 66 | 188 | 6.0 | 18.0 | 0.00 | 0.00 | 0.00 | 59 | 1015.0 |
| 20260505025509 | 66 | 203 | 6.0 | 18.0 | 0.00 | 0.00 | 0.00 | 60 | 1015.0 |
| 20260505025009 | 66 | 213 | 4.0 | 16.0 | 0.00 | 0.00 | 0.00 | 60 | 1015.0 |
| 20260505024526 | 66 | 164 | 4.0 | 16.0 | 0.00 | 0.00 | 0.00 | 60 | 1015.1 |
| 20260505024007 | 66 | 172 | 7.0 | 14.0 | 0.00 | 0.00 | 0.00 | 61 | 1015.0 |
| 20260505023511 | 66 | 178 | 3.0 | 12.0 | 0.00 | 0.00 | 0.00 | 60 | 1015.1 |
| 20260505023026 | 66 | 175 | 6.0 | 12.0 | 0.00 | 0.00 | 0.00 | 61 | 1015.0 |
| 20260505022509 | 66 | 144 | 4.0 | 15.0 | 0.00 | 0.00 | 0.00 | 60 | 1015.0 |
| 20260505022010 | 66 | 176 | 7.0 | 14.0 | 0.00 | 0.00 | 0.00 | 60 | 1015.0 |
| 20260505021523 | 66 | 162 | 4.0 | 13.0 | 0.00 | 0.00 | 0.00 | 60 | 1014.9 |
| 20260505021009 | 67 | 198 | 3.0 | 13.0 | 0.00 | 0.00 | 0.00 | 60 | 1014.8 |
| 20260505020512 | 67 | 214 | 4.0 | 12.0 | 0.00 | 0.00 | 0.00 | 60 | 1014.9 |
| 20260505020028 | 67 | 115 | 5.0 | 15.0 | 0.00 | 0.00 | 0.00 | 60 | 1015.0 |
| 20260505015511 | 67 | 123 | 5.0 | 15.0 | 0.00 | 0.00 | 0.00 | 60 | 1014.9 |
| 20260505015010 | 67 | 220 | 4.0 | 12.0 | 0.00 | 0.00 | 0.00 | 60 | 1014.9 |
| 20260505014528 | 67 | 198 | 4.0 | 10.0 | 0.00 | 0.00 | 0.00 | 60 | 1014.9 |
| 20260505014009 | 67 | 182 | 3.0 | 17.0 | 0.00 | 0.00 | 0.00 | 59 | 1014.7 |
| 20260505013508 | 67 | 178 | 5.0 | 17.0 | 0.00 | 0.00 | 0.00 | 59 | 1014.6 |
| 20260505013027 | 67 | 180 | 2.0 | 12.0 | 0.00 | 0.00 | 0.00 | 59 | 1014.7 |
| 20260505012508 | 67 | 216 | 1.0 | 11.0 | 0.00 | 0.00 | 0.00 | 59 | 1014.6 |
| 20260505012009 | 68 | 118 | 3.0 | 12.0 | 0.00 | 0.00 | 0.00 | 59 | 1014.6 |
| 20260505011546 | 68 | 159 | 3.0 | 12.0 | 0.00 | 0.00 | 0.00 | 58 | 1014.5 |
| 20260505011010 | 68 | 238 | 6.0 | 12.0 | 0.00 | 0.00 | 0.00 | 58 | 1014.4 |
| 20260505010514 | 68 | 202 | 3.0 | 10.0 | 0.00 | 0.00 | 0.00 | 58 | 1014.3 |
| 20260505010026 | 68 | 166 | 5.0 | 15.0 | 0.00 | 0.00 | 0.00 | 58 | 1014.3 |
| 20260505005511 | 68 | 244 | 6.0 | 15.0 | 0.00 | 0.00 | 0.00 | 57 | 1014.2 |
| 20260505005011 | 69 | 146 | 4.0 | 11.0 | 0.00 | 0.00 | 0.00 | 57 | 1014.1 |
| 20260505004526 | 69 | 186 | 5.0 | 12.0 | 0.00 | 0.00 | 0.00 | 57 | 1014.0 |
| 20260505004007 | 69 | 144 | 3.0 | 14.0 | 0.00 | 0.00 | 0.00 | 56 | 1013.9 |
| 20260505003504 | 69 | 290 | 6.0 | 14.0 | 0.00 | 0.00 | 0.00 | 56 | 1013.9 |
| 20260505003020 | 69 | 169 | 4.0 | 12.0 | 0.00 | 0.00 | 0.00 | 56 | 1013.9 |
| 20260505002507 | 69 | 261 | 4.0 | 16.0 | 0.00 | 0.00 | 0.00 | 55 | 1013.9 |
| 20260505002018 | 70 | 158 | 4.0 | 17.0 | 0.00 | 0.00 | 0.00 | 55 | 1013.7 |
| 20260505001526 | 70 | 200 | 6.0 | 16.0 | 0.00 | 0.00 | 0.00 | 54 | 1013.7 |
| 20260505001012 | 70 | 151 | 4.0 | 12.0 | 0.00 | 0.00 | 0.00 | 54 | 1013.6 |
| 20260505000510 | 70 | 167 | 4.0 | 15.0 | 0.00 | 0.00 | 0.00 | 53 | 1013.6 |
| 20260505000015 | 70 | 186 | 6.0 | 15.0 | 0.00 | 0.00 | 0.00 | 52 | 1013.5 |
| 20260504235505 | 71 | 132 | 6.0 | 14.0 | 0.00 | 0.00 | 0.00 | 52 | 1013.4 |
| 20260504235008 | 71 | 123 | 5.0 | 10.0 | 0.00 | 0.00 | 0.00 | 51 | 1013.4 |
| 20260504234528 | 71 | 227 | 4.0 | 14.0 | 0.00 | 0.00 | 0.00 | 50 | 1013.3 |
| 20260504234009 | 72 | 319 | 6.0 | 17.0 | 0.00 | 0.00 | 0.00 | 49 | 1013.3 |
| 20260504233509 | 72 | 202 | 6.0 | 17.0 | 0.00 | 0.00 | 0.00 | 48 | 1013.1 |
| 20260504233028 | 73 | 227 | 3.0 | 17.0 | 0.00 | 0.00 | 0.00 | 45 | 1013.1 |
| 20260504232507 | 74 | 184 | 5.0 | 17.0 | 0.00 | 0.00 | 0.00 | 40 | 1012.9 |
| 20260504232006 | 74 | 208 | 5.0 | 13.0 | 0.00 | 0.00 | 0.00 | 36 | 1012.9 |
| 20260504231516 | 75 | 221 | 3.0 | 13.0 | 0.00 | 0.00 | 0.00 | 35 | 1012.8 |
| 20260504231010 | 75 | 213 | 4.0 | 13.0 | 0.00 | 0.00 | 0.00 | 35 | 1012.7 |
| 20260504230507 | 75 | 223 | 6.0 | 11.0 | 0.00 | 0.00 | 0.00 | 35 | 1012.7 |
| 20260504230024 | 75 | 199 | 4.0 | 12.0 | 0.00 | 0.00 | 0.00 | 35 | 1012.7 |
| 20260504225508 | 75 | 236 | 6.0 | 13.0 | 0.00 | 0.00 | 0.00 | 35 | 1012.8 |
| 20260504225009 | 76 | 220 | 4.0 | 13.0 | 0.00 | 0.00 | 0.00 | 34 | 1012.7 |
| 20260504224513 | 76 | 217 | 4.0 | 12.0 | 0.00 | 0.00 | 0.00 | 35 | 1012.8 |
| 20260504224005 | 76 | 223 | 7.0 | 12.0 | 0.00 | 0.00 | 0.00 | 34 | 1012.7 |
| 20260504223507 | 76 | 193 | 3.0 | 13.0 | 0.00 | 0.00 | 0.00 | 34 | 1012.6 |
| 20260504223025 | 76 | 231 | 5.0 | 19.0 | 0.00 | 0.00 | 0.00 | 34 | 1012.8 |
| 20260504222510 | 76 | 134 | 7.0 | 19.0 | 0.00 | 0.00 | 0.00 | 33 | 1012.7 |
| 20260504222009 | 77 | 215 | 5.0 | 12.0 | 0.00 | 0.00 | 0.00 | 34 | 1012.8 |
| 20260504221526 | 77 | 290 | 4.0 | 13.0 | 0.00 | 0.00 | 0.00 | 34 | 1012.8 |
| 20260504221012 | 77 | 180 | 6.0 | 13.0 | 0.00 | 0.00 | 0.00 | 32 | 1012.8 |
| 20260504220509 | 77 | 198 | 6.0 | 18.0 | 0.00 | 0.00 | 0.00 | 33 | 1012.6 |
| 20260504220014 | 77 | 165 | 3.0 | 19.0 | 0.00 | 0.00 | 0.00 | 33 | 1012.7 |
| 20260504215507 | 77 | 261 | 7.0 | 19.0 | 0.00 | 0.00 | 0.00 | 32 | 1012.7 |
| 20260504215009 | 78 | 219 | 4.0 | 15.0 | 0.00 | 0.00 | 0.00 | 32 | 1012.7 |
| 20260504214526 | 78 | 181 | 5.0 | 16.0 | 0.00 | 0.00 | 0.00 | 32 | 1012.7 |
| 20260504214012 | 78 | 194 | 7.0 | 14.0 | 0.00 | 0.00 | 0.00 | 32 | 1012.8 |
| 20260504213511 | 78 | 227 | 6.0 | 15.0 | 0.00 | 0.00 | 0.00 | 32 | 1012.9 |
| 20260504213033 | 78 | 233 | 5.0 | 15.0 | 0.00 | 0.00 | 0.00 | 31 | 1012.9 |
| 20260504212510 | 79 | 214 | 5.0 | 14.0 | 0.00 | 0.00 | 0.00 | 32 | 1013.0 |
| 20260504212007 | 79 | 169 | 7.0 | 17.0 | 0.00 | 0.00 | 0.00 | 31 | 1012.8 |
| 20260504211527 | 79 | 207 | 6.0 | 17.0 | 0.00 | 0.00 | 0.00 | 31 | 1012.9 |
| 20260504211007 | 80 | 184 | 5.0 | 12.0 | 0.00 | 0.00 | 0.00 | 31 | 1012.9 |
| 20260504210504 | 79 | 124 | 3.0 | 11.0 | 0.00 | 0.00 | 0.00 | 31 | 1012.9 |
| 20260504210008 | 79 | 267 | 5.0 | 14.0 | 0.00 | 0.00 | 0.00 | 32 | 1013.0 |
| 20260504205504 | 79 | 211 | 6.0 | 14.0 | 0.00 | 0.00 | 0.00 | 31 | 1013.0 |
| 20260504205006 | 79 | 180 | 6.0 | 14.0 | 0.00 | 0.00 | 0.00 | 32 | 1013.0 |
| 20260504204514 | 79 | 227 | 6.0 | 13.0 | 0.00 | 0.00 | 0.00 | 32 | 1013.0 |
| 20260504204006 | 80 | 116 | 3.0 | 15.0 | 0.00 | 0.00 | 0.00 | 32 | 1013.1 |
| 20260504203507 | 79 | 231 | 7.0 | 14.0 | 0.00 | 0.00 | 0.00 | 32 | 1013.0 |
| 20260504203003 | 79 | 193 | 4.0 | 14.0 | 0.00 | 0.00 | 0.00 | 32 | 1013.0 |
| 20260504202503 | 78 | 227 | 6.0 | 14.0 | 0.00 | 0.00 | 0.00 | 31 | 1013.0 |
| 20260504202003 | 78 | 250 | 5.0 | 13.0 | 0.00 | 0.00 | 0.00 | 32 | 1013.1 |
| 20260504201510 | 80 | 212 | 6.0 | 13.0 | 0.00 | 0.00 | 0.00 | 30 | 1013.1 |
| 20260504201003 | 80 | 215 | 6.0 | 20.0 | 0.00 | 0.00 | 0.00 | 31 | 1013.1 |
| 20260504200506 | 79 | 199 | 5.0 | 20.0 | 0.00 | 0.00 | 0.00 | 30 | 1013.2 |
| 20260504200020 | 79 | 225 | 7.0 | 17.0 | 0.00 | 0.00 | 0.00 | 29 | 1013.2 |
| 20260504195507 | 80 | 177 | 3.0 | 17.0 | 0.00 | 0.00 | 0.00 | 31 | 1013.3 |
| 20260504195008 | 80 | 223 | 5.0 | 12.0 | 0.00 | 0.00 | 0.00 | 32 | 1013.3 |
| 20260504194504 | 79 | 149 | 6.0 | 12.0 | 0.00 | 0.00 | 0.00 | 31 | 1013.4 |
| 20260504194004 | 80 | 248 | 6.0 | 12.0 | 0.00 | 0.00 | 0.00 | 31 | 1013.5 |
| 20260504193506 | 80 | 224 | 5.0 | 17.0 | 0.00 | 0.00 | 0.00 | 30 | 1013.6 |
| 20260504193012 | 80 | 308 | 7.0 | 16.0 | 0.00 | 0.00 | 0.00 | 30 | 1013.6 |
| 20260504192508 | 80 | 219 | 6.0 | 14.0 | 0.00 | 0.00 | 0.00 | 29 | 1013.7 |
| 20260504192009 | 80 | 243 | 9.0 | 17.0 | 0.00 | 0.00 | 0.00 | 29 | 1013.7 |
| 20260504191521 | 80 | 126 | 6.0 | 16.0 | 0.00 | 0.00 | 0.00 | 30 | 1013.7 |
| 20260504191009 | 80 | 215 | 2.0 | 16.0 | 0.00 | 0.00 | 0.00 | 31 | 1013.8 |
| 20260504190503 | 79 | 135 | 7.0 | 14.0 | 0.00 | 0.00 | 0.00 | 32 | 1013.9 |
| 20260504190006 | 79 | 213 | 4.0 | 12.0 | 0.00 | 0.00 | 0.00 | 33 | 1013.8 |
| 20260504185505 | 80 | 269 | 6.0 | 12.0 | 0.00 | 0.00 | 0.00 | 30 | 1013.9 |
| 20260504185004 | 80 | 236 | 3.0 | 9.0 | 0.00 | 0.00 | 0.00 | 33 | 1013.9 |
| 20260504184523 | 80 | 278 | 5.0 | 13.0 | 0.00 | 0.00 | 0.00 | 33 | 1014.1 |
| 20260504184011 | 79 | 239 | 3.0 | 13.0 | 0.00 | 0.00 | 0.00 | 32 | 1014.0 |
| 20260504183508 | 80 | 201 | 5.0 | 12.0 | 0.00 | 0.00 | 0.00 | 32 | 1014.3 |
| 20260504183026 | 79 | 292 | 3.0 | 10.0 | 0.00 | 0.00 | 0.00 | 34 | 1014.4 |
| 20260504182503 | 79 | 268 | 5.0 | 13.0 | 0.00 | 0.00 | 0.00 | 33 | 1014.6 |
| 20260504182004 | 78 | 277 | 7.0 | 13.0 | 0.00 | 0.00 | 0.00 | 35 | 1014.5 |
| 20260504181509 | 77 | 287 | 2.0 | 11.0 | 0.00 | 0.00 | 0.00 | 33 | 1014.3 |
| 20260504181008 | 79 | 258 | 4.0 | 16.0 | 0.00 | 0.00 | 0.00 | 32 | 1014.6 |
| 20260504180507 | 78 | 222 | 8.0 | 16.0 | 0.00 | 0.00 | 0.00 | 34 | 1014.7 |
| 20260504180023 | 78 | 195 | 5.0 | 14.0 | 0.00 | 0.00 | 0.00 | 33 | 1014.7 |
| 20260504175513 | 79 | 206 | 3.0 | 13.0 | 0.00 | 0.00 | 0.00 | 35 | 1014.7 |
| 20260504175012 | 77 | 284 | 4.0 | 12.0 | 0.00 | 0.00 | 0.00 | 34 | 1014.7 |
| 20260504174526 | 77 | 324 | 3.0 | 12.0 | 0.00 | 0.00 | 0.00 | 34 | 1014.7 |
| 20260504174010 | 77 | 159 | 3.0 | 12.0 | 0.00 | 0.00 | 0.00 | 35 | 1014.8 |
| 20260504173508 | 77 | 287 | 5.0 | 13.0 | 0.00 | 0.00 | 0.00 | 34 | 1014.8 |
| 20260504173020 | 77 | 261 | 5.0 | 12.0 | 0.00 | 0.00 | 0.00 | 33 | 1014.9 |
| 20260504172505 | 77 | 227 | 6.0 | 17.0 | 0.00 | 0.00 | 0.00 | 33 | 1014.9 |
| 20260504172010 | 76 | 300 | 8.0 | 17.0 | 0.00 | 0.00 | 0.00 | 34 | 1015.0 |
| 20260504171539 | 76 | 294 | 8.0 | 17.0 | 0.00 | 0.00 | 0.00 | 34 | 1015.0 |
| 20260504171010 | 77 | 266 | 5.0 | 12.0 | 0.00 | 0.00 | 0.00 | 35 | 1015.0 |
| 20260504170515 | 77 | 275 | 3.0 | 13.0 | 0.00 | 0.00 | 0.00 | 35 | 1015.0 |
| 20260504151010 | 70 | 197 | 5.0 | 15.0 | 0.00 | 0.00 | 0.00 | 44 | 1016.2 |
| 20260504150507 | 70 | 181 | 8.0 | 15.0 | 0.00 | 0.00 | 0.00 | 45 | 1016.2 |
| 20260504141002 | 67 | 264 | 4.0 | 10.0 | 0.00 | 0.00 | 0.00 | 52 | 1016.4 |
| 20260504140504 | 66 | 184 | 2.0 | 9.0 | 0.00 | 0.00 | 0.00 | 53 | 1016.4 |